This is the latest recevied weather packets stored in our database for station/object KE8AFF-13. If no packets are shown the sender has not sent any weather packets the latest 10 day(s).
| Time | Temp. | Humidity | Pressure | Rain* | Wind** | Luminosity | Snow |
|---|---|---|---|---|---|---|---|
| 1778032933 | 8.89° C | 99% | 1008.8 hPa | 3.05 mm | - | 0 W/m² | - |
| 1778032630 | 9.44° C | 99% | 1008.6 hPa | 4.32 mm | - | 0 W/m² | - |
| 1778032328 | 9.44° C | 99% | 1008.7 hPa | 4.32 mm | - | 0 W/m² | - |
| 1778032024 | 9.44° C | 99% | 1008.3 hPa | 3.05 mm | - | 0 W/m² | - |
| 1778031720 | 9.44° C | 99% | 1008.3 hPa | 3.05 mm | - | 0 W/m² | - |
| 1778031418 | 9.44° C | 99% | 1008 hPa | 3.05 mm | - | 0 W/m² | - |
| 1778031115 | 9.44° C | 99% | 1008.2 hPa | 2.29 mm | - | 0 W/m² | - |
| 1778030811 | 9.44° C | 99% | 1008 hPa | 1.78 mm | - | 0 W/m² | - |
| 1778030508 | 9.44° C | 99% | 1007.8 hPa | 1.78 mm | - | 0 W/m² | - |
| 1778030206 | 9.44° C | 99% | 1008 hPa | 1.78 mm | - | 0 W/m² | - |
| 1778029901 | 9.44° C | 99% | 1007.7 hPa | 1.78 mm | - | 0 W/m² | - |
| 1778029600 | 9.44° C | 99% | 1007.9 hPa | 1.78 mm | - | 0 W/m² | - |
| 1778029297 | 10° C | 99% | 1007.9 hPa | 2.29 mm | - | 0 W/m² | - |
| 1778028994 | 9.44° C | 99% | 1007.9 hPa | 2.29 mm | - | 0 W/m² | - |
| 1778028691 | 10° C | 99% | 1007.5 hPa | 2.29 mm | - | 0 W/m² | - |
| 1778028387 | 10° C | 99% | 1007.8 hPa | 3.05 mm | - | 0 W/m² | - |
| 1778028084 | 10° C | 99% | 1007.9 hPa | 4.32 mm | - | 0 W/m² | - |
| 1778027781 | 10° C | 99% | 1007.7 hPa | 7.87 mm | - | 0 W/m² | - |
| 1778027477 | 10° C | 99% | 1007.6 hPa | 8.89 mm | - | 0 W/m² | - |
| 1778027173 | 10° C | 99% | 1007.5 hPa | 7.11 mm | - | 0 W/m² | - |
| 1778026869 | 10° C | 99% | 1007.6 hPa | 5.33 mm | - | 0 W/m² | - |
| 1778026565 | 10° C | 99% | 1007.4 hPa | 6.1 mm | - | 0 W/m² | - |
| 1778026262 | 10.56° C | 99% | 1007.4 hPa | 4.83 mm | - | 0 W/m² | - |
| 1778025960 | 11.11° C | 99% | 1007.3 hPa | 4.83 mm | - | 0 W/m² | - |
| 1778025657 | 11.11° C | 99% | 1007.2 hPa | 4.32 mm | - | 0 W/m² | - |
* Rain latest hour (hover to see other rain measurements)
** Current wind speed in m/s (hover to see current wind gust speed)